Home > Weather > Lichfield > Past weeks

Flag for United Kingdom Past Weather in Lichfield, England, United Kingdom — Yesterday and Last 2 Weeks

Now
55 °F

Passing clouds.


Feels Like: 55 °F
Forecast: 52 / 67 °F
Wind: 3 mph from South

Location: Birmingham / Airport

Current Time: Jul 29, 2016 at 5:06:42 AM

Latest Report: Jul 29, 2016 at 4:20 AM


Visibility: N/A

Pressure: 29.80 "Hg

Humidity: 100%

Dew Point: 55 °F

Location of LichfieldLocation

Past Weather in Lichfield — Graph

°F

Lichfield Temperature Yesterday

Maximum temperature yesterday: 70 °F (at 5:50 PM)
Minimum temperature yesterday: 55 °F (at 4:50 AM)
Average temperature yesterday: 61 °F

High & Low Weather Summary for the Past Weeks

 TemperatureHumidityPressure
High88 °F (Jul 19, 2:20 PM)100% (Jul 15, 1:50 PM)30.30 "Hg (Jul 15, 1:50 PM)
Low52 °F (Jul 14, 3:20 AM)36% (Jul 17, 7:20 PM)29.68 "Hg (Jul 20, 7:50 AM)
Average66 °F73%30.07 "Hg
* Reported Jul 14 3:20 AM — Jul 29 3:50 AM, Lichfield, Weather by CustomWeather, © 2016

Note: Actual official high and low records may vary slightly from our data, if they occured in-between our weather recording intervals... More about our weather records

Advertising

Lichfield Weather History for the Previous 24 Hours

Scroll right to see more
 ConditionsComfort  
Time TempWeatherWind HumidityBarometerVisibility
3:50 AM
Fri, Jul 29
55 °FClear.5 mph100%29.80 "Hg10 mi
3:20 AM57 °FClear.3 mph94%29.83 "Hg10 mi
2:20 AM59 °FClear.3 mph94%29.83 "Hg10 mi
1:50 AM59 °FClear.3 mph100%29.83 "Hg10 mi
1:20 AM61 °FClear.2 mph94%29.83 "Hg10 mi
12:50 AM61 °FClear.3 mph94%29.83 "Hg10 mi
12:20 AM63 °FClear.2 mph88%29.83 "Hg10 mi
11:50 PM
Thu, Jul 28
63 °FPassing clouds.2 mph94%29.83 "HgN/A
11:20 PM63 °FClear.2 mph88%29.83 "Hg10 mi
10:50 PM63 °FClear.3 mph88%29.83 "Hg10 mi
10:20 PM64 °FClear.3 mph83%29.83 "Hg10 mi
9:50 PM64 °FPassing clouds.3 mph88%29.83 "HgN/A
9:20 PM64 °FPassing clouds.5 mph88%29.83 "HgN/A
8:50 PM64 °FScattered clouds.5 mph88%29.83 "HgN/A
8:20 PM64 °FScattered clouds.3 mph88%29.83 "HgN/A
7:50 PM64 °FRain showers. Scattered clouds.9 mph88%29.83 "Hg2 mi
7:20 PM68 °FScattered showers. Scattered clouds.7 mph78%29.83 "HgN/A
6:50 PM68 °FScattered showers. Scattered clouds.6 mph73%29.83 "HgN/A
6:20 PM68 °FScattered showers. Scattered clouds.7 mph73%29.83 "HgN/A
5:50 PM70 °FScattered showers. Scattered clouds.7 mph73%29.83 "HgN/A
5:20 PM68 °FScattered showers. Scattered clouds.8 mph78%29.83 "HgN/A
4:50 PM68 °FScattered clouds.9 mph78%29.83 "HgN/A
4:20 PM66 °FScattered clouds.9 mph83%29.86 "HgN/A
3:50 PM64 °FLight rain. Broken clouds.10 mph88%29.86 "Hg6 mi
3:20 PM63 °FScattered showers. Partly sunny.10 mph88%29.86 "HgN/A
2:50 PM63 °FPartly sunny.10 mph88%29.86 "HgN/A
2:20 PM63 °FPartly sunny.8 mph83%29.89 "HgN/A
1:50 PM63 °FBroken clouds.9 mph83%29.89 "HgN/A
1:20 PM59 °FScattered showers. Broken clouds.8 mph94%29.92 "HgN/A
12:50 PM59 °FLight rain. Broken clouds.9 mph94%29.92 "Hg6 mi
12:20 PM59 °FRain. Broken clouds.8 mph88%29.92 "Hg3 mi
11:50 AM59 °FLight rain. Broken clouds.3 mph88%29.95 "HgN/A
11:20 AM63 °FLight rain. More clouds than sun.7 mph68%29.95 "HgN/A
10:50 AM61 °FOvercast.8 mph72%29.95 "HgN/A
10:20 AM61 °FPassing clouds.7 mph72%29.95 "HgN/A
9:50 AM61 °FPassing clouds.7 mph72%29.95 "HgN/A
9:20 AM61 °FPassing clouds.7 mph72%29.95 "HgN/A
8:50 AM61 °FSunny.6 mph72%29.95 "Hg10 mi
8:20 AM59 °FSunny.6 mph77%29.95 "Hg10 mi
7:50 AM59 °FPassing clouds.5 mph77%29.98 "HgN/A
7:20 AM57 °FSunny.3 mph82%29.98 "Hg10 mi
6:50 AM57 °FSunny.2 mph82%29.98 "Hg10 mi
6:20 AM55 °FClear.2 mph88%29.98 "Hg10 mi
5:50 AM55 °FClear.No wind88%29.98 "Hg10 mi
5:20 AM55 °FClear.3 mph82%29.98 "Hg10 mi
Weather by CustomWeather, © 2016

See weather overviewHow to use our weather pages